Flag for British Virgin Islands Weather past 2 weeks in Road Town, Tortola, British Virgin Islands

Now
81 °F

Scattered showers. Scattered clouds.


Feels Like: 85 °F
Forecast: 76 / 81 °F
Wind: 14 mph from Southeast

Location: Beef Island - Tortola

Current Time: Jan 26, 2015 at 11:10:06 AM

Latest Report: Jan 26, 2015 at 10:00 AM


Visibility: N/A

Pressure: 30.07 "Hg

Humidity: 74%

Dew point: 72 °F

Location of Road TownLocation

Historic Weather in Road Town — Graph

°F

Road Town temperature yesterday

Maximum temperature yesterday: 84 °F (at 1:00 PM)
Minimum temperature yesterday: 77 °F (at 7:00 AM)
Average temperature yesterday: 81 °F

Past Weeks' High & Low Weather Summary

 TemperatureHumidityPressure
High86 °F (Jan 11, 1:00 PM)100% (Jan 19, 7:00 AM)30.15 "Hg (Jan 19, 7:00 AM)
Low70 °F (Jan 19, 7:00 AM)62% (Jan 21, 11:00 AM)29.95 "Hg (Jan 16, 4:00 PM)
Average80 °F77%30.03 "Hg
* Reported Jan 11 10:00 AM — Jan 26 10:00 AM, Road Town, Weather by CustomWeather, © 2014

Note: Actual official high and low records may vary slightly from our data, if they occured in-between our weather recording intervals... More about our weather records

Advertising

Road Town weather history for previous 24 hours

 ConditionsComfort  
Time TempWeatherWind HumidityBarometerVisibility
10:00 AM
Jan 26
81 °FScattered showers. Scattered clouds.14 mph74%30.07 "HgN/A
9:00 AM81 °FScattered clouds.7 mph74%30.04 "HgN/A
8:00 AM79 °FScattered clouds.12 mph79%30.01 "HgN/A
7:00 AM77 °FScattered clouds.10 mph79%30.01 "HgN/A
10:00 PM
Jan 25
79 °FPassing clouds.9 mph74%30.04 "HgN/A
9:00 PM79 °FPassing clouds.9 mph74%30.04 "HgN/A
8:00 PM79 °FPassing clouds.10 mph74%30.01 "HgN/A
7:00 PM79 °FPassing clouds.8 mph79%30.01 "HgN/A
6:00 PM81 °FScattered clouds.8 mph74%30.01 "HgN/A
5:00 PM81 °FScattered clouds.9 mph74%29.98 "HgN/A
4:00 PM82 °FScattered clouds.10 mph70%29.98 "HgN/A
3:00 PM82 °FScattered clouds.12 mph70%29.98 "HgN/A
2:10 PM84 °FScattered clouds.12 mph66%30.01 "HgN/A
1:00 PM84 °FScattered clouds.8 mph66%30.01 "HgN/A
12:00 PM82 °FScattered clouds.9 mph74%30.04 "HgN/A
11:00 AM82 °FScattered clouds.10 mph70%30.07 "HgN/A
Weather by CustomWeather, © 2014

See weather overviewHow to use our weather pages